Scroll for more >

River gauges, storages, and weirs in the Murray–Darling Basin

Typesort descending Location River Water level Flow Volume Release Water temp Salinity Rainfall
River Gauge Gulpa Creek Offtake Murray 2.46 m 25/07/2017 21:45 320 ML/Day 25/07/2017 21:45 Not measured Not measured Not measured Not measured Not measured Full data
River Gauge Rochester Campaspe 1.8 m 25/07/2017 21:45 146 ML/Day 25/07/2017 21:45 Not measured Not measured 8.5°C 25/07/2017 21:45 452.9 μS/cm 25/07/2017 21:45 0.2 mm 25/07/2017 9:00 Full data
River Gauge Lake Alexandrina Murray 0.74 m 25/07/2017 5:45 Not measured 1604 GL 25/07/2017 5:45 Not measured Not measured 552.1 μS/cm 25/07/2017 20:45 Not measured Full data
River Gauge Albury (Union Bridge) Murray 1.29 m 25/07/2017 22:00 Not measured Not measured Not measured 10.5°C 25/07/2017 22:00 62.0 μS/cm 25/07/2017 22:00 Not measured Full data
River Gauge Hinnomunjie Mitta 0.72 m 25/07/2017 21:45 514 ML/Day 25/07/2017 21:45 Not measured Not measured 5.1°C 25/07/2017 21:45 42.6 μS/cm 25/07/2017 21:45 0.0 mm 25/07/2017 9:00 Full data
River Gauge Rufus River Murray 20.97 m 25/07/2017 7:45 Not measured Not measured 614.1 ML/d25/07/2017 7:45 Not measured 237.0 μS/cm 25/07/2017 20:45 Not measured Full data
River Gauge Echuca Wharf Murray 86.5 m 25/07/2017 8:00 Not measured Not measured Not measured Not measured Not measured Not measured Full data
River Gauge Wakool Canal Wakool -0.55 m 25/07/2017 21:45 Not measured Not measured 0.0 ML/d25/07/2017 7:45 Not measured Not measured Not measured Full data
River Gauge Wilcania Darling 0.56 m 25/07/2017 21:45 309 ML/Day 25/07/2017 21:45 Not measured Not measured 10.7°C 25/07/2017 21:45 260.1 μS/cm 25/07/2017 21:45 Not measured Full data
River Gauge Lake Albert Murray 0.8 m 25/07/2017 5:45 Not measured 280 GL 25/07/2017 5:45 Not measured Not measured Not measured Not measured Full data
River Gauge Corowa Murray 1.35 m 25/07/2017 22:00 4565 ML/Day 25/07/2017 22:00 Not measured Not measured 9.8°C 25/07/2017 22:00 63.7 μS/cm 25/07/2017 22:00 Not measured Full data
River Gauge Colemans Mitta 1.28 m 25/07/2017 22:15 707 ML/Day 25/07/2017 22:15 Not measured Not measured 8.9°C 25/07/2017 21:45 52.2 μS/cm 25/07/2017 21:45 Not measured Full data
River Gauge Murray Bridge Murray 0.74 m 25/07/2017 20:45 Not measured Not measured Not measured 11.7°C 25/07/2017 20:45 474.0 μS/cm 25/07/2017 20:45 Not measured Full data
River Gauge Biggara Murray 0.5 m 25/07/2017 22:00 615 ML/Day 25/07/2017 22:00 Not measured Not measured 7.5°C 25/07/2017 22:00 57.5 μS/cm 25/07/2017 22:00 0.2 mm 25/07/2017 9:00 Full data
River Gauge Tauwitchere Barrage Murray 0.7 m 25/07/2017 20:45 Not measured Not measured Not measured Not measured Not measured Not measured Full data
River Gauge Colignan Murray 2.61 m 25/07/2017 21:30 11306 ML/Day 25/07/2017 21:30 Not measured Not measured 11.3°C 25/07/2017 21:30 129.3 μS/cm 25/07/2017 21:30 Not measured Full data
River Gauge Tallandoon Mitta 1.63 m 25/07/2017 21:45 1125 ML/Day 25/07/2017 21:45 Not measured Not measured 10.3°C 25/07/2017 21:45 38.6 μS/cm 25/07/2017 21:45 Not measured Full data
River Gauge Bringenbrong Bridge Murray 1.81 m 25/07/2017 22:00 5829 ML/Day 25/07/2017 22:00 Not measured Not measured Not measured Not measured Not measured Full data
River Gauge Weir 32 Upstream Darling 1.47 m 25/07/2017 21:45 390 ML/Day 25/07/2017 21:45 Not measured Not measured 11.6°C 25/07/2017 21:45 683.6 μS/cm 25/07/2017 21:45 Not measured Full data
River Gauge Mundoo Barrage Murray 0.73 m 25/07/2017 7:45 Not measured Not measured Not measured Not measured Not measured Not measured Full data
River Gauge Yarrawonga Main Channel Murray 122.81 m 4/07/2017 3:45 Not measured Not measured 99.5 ML/d25/07/2017 8:45 Not measured Not measured Not measured Full data
River Gauge Balranald Murrumbidgee 1.61 m 25/07/2017 21:45 1121 ML/Day 25/07/2017 21:45 Not measured Not measured 9.7°C 25/07/2017 21:45 309.8 μS/cm 25/07/2017 21:45 Not measured Full data
River Gauge Flow to South Australia Murray Not measured Not measured Not measured 10523.2 ML/d25/07/2017 7:45 Not measured Not measured Not measured Full data
River Gauge Torrumbarry Headworks Murray 83.81 m 25/07/2017 21:45 Not measured Not measured 463.2 ML/d25/07/2017 21:45 Not measured Not measured Not measured Full data
River Gauge Pinegrove Murray 1.29 m 25/07/2017 22:00 352 ML/Day 25/07/2017 22:00 Not measured Not measured 8.9°C 25/07/2017 22:00 83.8 μS/cm 25/07/2017 22:00 0.4 mm 25/07/2017 9:00 Full data
River Gauge Burtundy Darling 0.8 m 25/07/2017 21:45 320 ML/Day 25/07/2017 21:45 Not measured Not measured 10.9°C 25/07/2017 21:45 639.5 μS/cm 25/07/2017 21:45 Not measured Full data
River Gauge Mulwala Canal Murray Not measured Not measured Not measured 0.0 ML/d25/07/2017 7:45 Not measured Not measured Not measured Full data
River Gauge Peechelba Ovens 127.44 m 25/07/2017 21:45 2068 ML/Day 25/07/2017 21:45 Not measured Not measured 8.3°C 25/07/2017 21:45 53.7 μS/cm 25/07/2017 21:45 Not measured Full data
River Gauge Stoney Crossing Murray 1.55 m 25/07/2017 21:45 723 ML/Day 25/07/2017 21:45 Not measured 716.6 ML/d25/07/2017 7:45 10.1°C 25/07/2017 21:45 323.4 μS/cm 25/07/2017 21:45 Not measured Full data
River Gauge Jingellic Murray 2.04 m 25/07/2017 21:45 7381 ML/Day 25/07/2017 21:45 Not measured Not measured 7.2°C 25/07/2017 21:45 47.2 μS/cm 25/07/2017 21:45 0.8 mm 25/07/2017 9:00 Full data
River Gauge McCoy Bridge Goulburn 1.72 m 25/07/2017 21:45 1344 ML/Day 25/07/2017 21:45 Not measured Not measured 9.6°C 25/07/2017 21:45 84.2 μS/cm 25/07/2017 21:45 Not measured Full data
River Gauge Tocumwal Murray 1.81 m 25/07/2017 21:45 6151 ML/Day 25/07/2017 21:45 Not measured Not measured 9.8°C 25/07/2017 21:45 68.1 μS/cm 25/07/2017 21:45 Not measured Full data
River Gauge Edward Escape Wakool -1.21 m 25/07/2017 21:45 1 ML/Day 4/07/2017 2:15 Not measured Not measured 13.1°C 25/07/2017 21:45 0.0 μS/cm 25/07/2017 21:45 Not measured Full data
River Gauge Swan Hill Murray 1.28 m 25/07/2017 21:15 6165 ML/Day 25/07/2017 21:15 Not measured Not measured 9.9°C 25/07/2017 21:15 110.0 μS/cm 25/07/2017 21:15 Not measured Full data
River Gauge Bandiana Kiewa 1.24 m 25/07/2017 21:45 868 ML/Day 25/07/2017 21:45 Not measured Not measured 9.0°C 25/07/2017 21:45 41.5 μS/cm 25/07/2017 21:45 Not measured Full data
River Gauge Morgan Downstream Murray Not measured Not measured Not measured 7719.9 ML/d25/07/2017 20:45 Not measured 423.2 μS/cm 25/07/2017 20:45 Not measured Full data
River Gauge Frenchman Creek Murray 27.33 m 25/07/2017 7:45 Not measured Not measured 1468.3 ML/d25/07/2017 7:45 Not measured Not measured Not measured Full data
River Gauge Edward River Offtake Murray 2.01 m 25/07/2017 22:00 1046 ML/Day 25/07/2017 22:00 Not measured Not measured 9.7°C 25/07/2017 21:45 54.8 μS/cm 25/07/2017 21:45 Not measured Full data
River Gauge Wakool Junction Murray 3.34 m 25/07/2017 21:45 8747 ML/Day 25/07/2017 21:45 Not measured Not measured 9.7°C 25/07/2017 21:45 113.0 μS/cm 25/07/2017 21:45 Not measured Full data
River Gauge Doctors Point Murray 2.27 m 25/07/2017 22:00 6441 ML/Day 25/07/2017 22:00 Not measured Not measured 10.7°C 25/07/2017 22:00 56.7 μS/cm 25/07/2017 22:00 Not measured Full data
River Gauge Kerang Loddon 0.32 m 25/07/2017 21:45 125 ML/Day 25/07/2017 21:45 Not measured Not measured 9.8°C 25/07/2017 21:45 1089.4 μS/cm 25/07/2017 21:45 Not measured Full data
Storage Lake Victoria Murray 24.78 m 25/07/2017 20:45 Not measured 425 GL 25/07/2017 20:45 Not measured 11.0°C 25/07/2017 20:45 230.8 μS/cm 25/07/2017 20:45 Not measured Full data
Storage Dartmouth Dam Mitta 472.48 m 25/07/2017 22:15 Not measured 3031 GL 25/07/2017 22:15 Not measured Not measured Not measured Not measured Full data
Storage Menindee Lakes Darling Not measured Not measured 761 GL 25/07/2017 7:45 Not measured Not measured Not measured Not measured Full data
Storage Hume Dam Murray 188.01 m 25/07/2017 22:15 Not measured 2265 GL 25/07/2017 22:15 5271.0 ML/d25/07/2017 8:00 Not measured Not measured 0.0 mm 25/07/2017 9:00 Full data
Weirs Lock 1 Downstream Murray 0.88 m 25/07/2017 20:45 Not measured Not measured 10292.3 ML/d25/07/2017 7:45 Not measured Not measured Not measured Full data
Weirs Steven's Weir Downstream Wakool 1 m 25/07/2017 21:45 661 ML/Day 25/07/2017 21:45 Not measured Not measured 9.7°C 25/07/2017 21:45 59.1 μS/cm 25/07/2017 21:45 0.0 mm 23/07/2017 9:00 Full data
Weirs Lock 5 Upstream Murray 16.21 m 25/07/2017 20:45 Not measured Not measured Not measured 11.5°C 25/07/2017 20:45 266.6 μS/cm 25/07/2017 20:45 Not measured Full data
Weirs Euston Weir Upstream Murray 47.4 m 25/07/2017 8:00 Not measured 34 GL 25/07/2017 7:45 Not measured Not measured Not measured 0.0 mm 24/07/2017 9:00 Full data
Weirs Lock 1 Upstream Murray 3.11 m 25/07/2017 20:45 Not measured Not measured Not measured 11.7°C 25/07/2017 20:45 431.2 μS/cm 25/07/2017 20:45 Not measured Full data
Weirs Lock 4 Downstream Murray 11.01 m 25/07/2017 20:45 Not measured Not measured Not measured Not measured Not measured Not measured Full data
Weirs Euston Weir Downstream Murray 43.96 m 25/07/2017 21:45 10684 ML/Day 25/07/2017 21:45 Not measured Not measured 9.8°C 25/07/2017 21:45 127.7 μS/cm 25/07/2017 21:45 Not measured Full data
Weirs Yarrawonga Weir Upstream Murray 124.71 m 25/07/2017 21:45 Not measured Not measured Not measured Not measured Not measured 0.0 mm 25/07/2017 9:00 Full data
Weirs Lock 7 Downstream Murray 21 m 25/07/2017 20:45 Not measured Not measured Not measured Not measured Not measured Not measured Full data
Weirs Torrumbarry Weir Downstream Murray 1.86 m 25/07/2017 21:45 4991 ML/Day 25/07/2017 21:45 Not measured Not measured 9.2°C 25/07/2017 21:45 78.4 μS/cm 25/07/2017 21:45 Not measured Full data
Weirs Lock 4 Upstream Murray 13.21 m 25/07/2017 20:45 Not measured Not measured Not measured Not measured Not measured Not measured Full data
Weirs Mildura Weir downstream Murray 31.09 m 25/07/2017 21:30 Not measured Not measured Not measured 10.8°C 25/07/2017 21:30 156.8 μS/cm 25/07/2017 21:30 Not measured Full data
Weirs Yarrawonga Weir Downstream Murray 1.33 m 25/07/2017 21:45 7751 ML/Day 25/07/2017 21:45 Not measured Not measured 9.5°C 25/07/2017 21:45 48.8 μS/cm 25/07/2017 21:45 Not measured Full data
Weirs Lock 7 Upstream Murray 21.86 m 25/07/2017 20:45 Not measured Not measured Not measured 11.4°C 25/07/2017 20:45 197.5 μS/cm 25/07/2017 20:45 Not measured Full data
Weirs Torrumbarry Weir Upstream Murray 85.96 m 25/07/2017 8:45 Not measured 36 GL 25/07/2017 8:45 Not measured 8.9°C 25/07/2017 8:45 79.0 μS/cm 25/07/2017 8:00 0.0 mm 25/07/2017 9:00 Full data
Weirs Lock 3 Downstream Murray 6.52 m 25/07/2017 20:45 Not measured Not measured Not measured Not measured Not measured Not measured Full data
Weirs Lock 3 Upstream Murray 9.81 m 25/07/2017 20:45 Not measured Not measured Not measured Not measured Not measured Not measured Full data
Weirs Lock 9 Downstream Murray 24.08 m 25/07/2017 20:45 Not measured Not measured Not measured Not measured Not measured Not measured Full data
Weirs Wentworth Weir Murray 27.9 m 25/07/2017 21:45 Not measured Not measured 11329.9 ML/d25/07/2017 7:45 Not measured 164.0 μS/cm 25/07/2017 7:45 0.0 mm 24/07/2017 9:00 Full data
Weirs Lock 2 Downstream Murray 3.61 m 25/07/2017 20:45 Not measured Not measured Not measured Not measured Not measured Not measured Full data
Weirs Lock 9 Upstream Murray 27.38 m 25/07/2017 20:45 Not measured Not measured Not measured 11.2°C 25/07/2017 20:45 157.3 μS/cm 25/07/2017 20:45 Not measured Full data
Weirs Lock 6 Downstream Murray 16.6 m 25/07/2017 20:45 Not measured Not measured Not measured Not measured Not measured Not measured Full data
Weirs Lock 2 Upstream Murray 6 m 25/07/2017 20:45 Not measured Not measured Not measured 11.7°C 25/07/2017 20:45 384.6 μS/cm 25/07/2017 20:45 Not measured Full data
Weirs Lock 8 Upstream Murray 23.63 m 25/07/2017 15:45 Not measured Not measured Not measured 11.2°C 25/07/2017 15:45 191.4 μS/cm 25/07/2017 15:45 Not measured Full data
Weirs Lock 6 Upstream Murray 19.18 m 25/07/2017 20:45 Not measured Not measured Not measured 11.2°C 25/07/2017 20:45 225.7 μS/cm 25/07/2017 20:45 Not measured Full data
Weirs Steven's Weir Upstream Wakool 4.04 m 25/07/2017 22:00 Not measured Not measured Not measured Not measured Not measured Not measured Full data
Weirs Lock 5 Downstream Murray 13.58 m 25/07/2017 20:45 Not measured Not measured Not measured Not measured Not measured Not measured Full data